EW9852 Weather Reports


time (UTC)temp
F
wind
direction
speed
knots
gust
knots
rain 1hr
in
rain 24hr
in
rain mn
in
humidity
%
barometer
mb
20260504050021 47 146 0.0 0.0 0.00 0.00 0.00 62 1011.5
20260504044520 48 172 0.0 0.0 0.00 0.00 0.00 58 1011.5
20260504043017 48 198 0.0 0.0 0.00 0.00 0.00 56 1011.5
20260504041514 49 215 0.0 0.0 0.00 0.00 0.00 57 1011.4
20260504040011 49 219 0.0 0.0 0.00 0.00 0.00 54 1011.3
20260504034519 50 219 0.0 0.0 0.00 0.00 0.00 53 1011.2
20260504033021 50 219 0.0 0.0 0.00 0.00 0.00 53 1011.1
20260504031510 51 219 0.0 0.0 0.00 0.00 0.00 51 1011.1
20260504030010 51 219 0.0 0.0 0.00 0.00 0.00 49 1011.0
20260504024528 52 219 0.0 1.7 0.00 0.00 0.00 48 1011.0
20260504023009 52 219 0.9 6.1 0.00 0.00 0.00 47 1011.0
20260504021508 53 227 1.7 4.3 0.00 0.00 0.00 46 1011.0
20260504020008 53 238 1.7 3.5 0.00 0.00 0.00 46 1010.9
20260504014508 53 229 1.7 5.2 0.00 0.00 0.00 46 1010.9
20260504013007 54 216 1.7 3.5 0.00 0.00 0.00 45 1010.8
20260504011506 54 227 1.7 6.1 0.00 0.00 0.00 45 1010.8
20260504010007 54 237 1.7 3.5 0.00 0.00 0.00 44 1010.7
20260504004513 55 225 2.6 4.3 0.00 0.00 0.00 43 1010.6
20260504003005 55 234 2.6 3.5 0.00 0.00 0.00 43 1010.4
20260504001505 56 235 2.6 5.2 0.00 0.00 0.00 42 1010.3
20260504000004 56 234 2.6 7.8 0.00 0.00 0.00 42 1010.1
20260503234504 57 227 2.6 6.1 0.00 0.00 0.00 41 1010.1
20260503233004 57 238 2.6 4.3 0.00 0.00 0.00 40 1010.0
20260503231503 58 237 2.6 7.0 0.00 0.00 0.00 40 1010.0
20260503230003 58 240 3.5 7.0 0.00 0.00 0.00 39 1009.9
20260503224503 58 240 3.5 7.0 0.00 0.00 0.00 38 1009.9
20260503223001 58 238 3.5 7.0 0.00 0.00 0.00 39 1009.8
20260503221501 59 246 5.2 8.7 0.00 0.00 0.00 37 1009.8
20260503220003 59 246 5.2 10.4 0.00 0.00 0.00 38 1009.9
20260503214500 60 237 3.5 6.1 0.00 0.00 0.00 37 1009.9
20260503213103 59 244 5.2 9.6 0.00 0.00 0.00 37 1009.8
20260503211605 60 239 2.6 7.0 0.00 0.00 0.00 37 1009.7
20260503210059 61 246 4.3 11.3 0.00 0.00 0.00 37 1009.7
20260503204600 61 242 3.5 9.6 0.00 0.00 0.00 37 1009.7
20260503203057 61 248 2.6 7.0 0.00 0.00 0.00 36 1009.8
20260503201657 61 211 2.6 7.0 0.00 0.00 0.00 41 1009.8
20260503200055 62 243 3.5 8.7 0.00 0.00 0.00 36 1009.8
20260503194553 60 283 6.1 10.4 0.00 0.00 0.00 36 1010.2
20260503193056 61 240 1.7 6.1 0.00 0.00 0.00 36 1010.3
20260503191550 60 233 3.5 8.7 0.00 0.00 0.00 39 1010.5
20260503190055 59 240 3.5 7.8 0.00 0.00 0.00 42 1010.6
20260503184601 60 243 2.6 7.0 0.00 0.00 0.00 38 1010.7
20260503183045 60 170 0.9 4.3 0.00 0.00 0.00 45 1010.9
20260503181544 59 263 3.5 8.7 0.00 0.00 0.00 37 1011.1
20260503180043 60 252 0.9 7.0 0.00 0.00 0.00 40 1011.1
20260503174559 57 239 1.7 7.8 0.00 0.00 0.00 40 1011.4
20260503173041 57 258 3.5 9.6 0.00 0.00 0.00 41 1011.6
20260503171537 56 122 1.7 7.0 0.00 0.00 0.00 41 1011.9
20260503081540 40 264 0.0 0.9 0.00 0.01 0.00 71 1011.8
20260503071531 42 248 0.0 3.5 0.00 0.01 0.00 69 1011.3